GSAT0207 (GALILEO 15) (41859 NORAD) Tracking and Keplerian Element Data

This shows tracking and keplerian element data for the satellite.

Feedback or suggestion? Click here.




ElementValue
Catalog41859
NameGSAT0207 (GALILEO 15)
Epoch Orbit2029
Epoch Day52.71175788
Epoch Year2020
RAAN165.0836
Inclination54.6349
Eccentricity0.0003493
Argument of Perigee296.3009
Mean Anonmoly63.6276
Mean Motion1.70473826
Decay Rate-3.1E-07
L11 41859U 16069A 20052.71175788 -.00000031 00000-0 00000+0 0 9996
L22 41859 54.6349 165.0836 0003493 296.3009 63.6276 1.70473826 20298

Live tracking and technical data element details for GSAT0207 (GALILEO 15) (NORAD 41859). GSAT0207 (GALILEO 15) can be tracked NOW for your location showing map with azimuth and elevation plus other details from your city location.

Track the satellite on the map from your city or location and see movement details for azimuth, elevation, latitude, longitude, range, height, and movement on the map or in text.







IsCatalogInMostPopularTable: catalog: 41859, numindb: 399
Update: records affected: 1



GetName: 41859 GSAT0207 (GALILEO 15)

Hit Count: updated at: Sun, 23 Feb 2020 08:22:26 GMT